Погода Остров Котельный

Погода Остров Котельный : погода сейчас, прогноз погоды и архив. Всё, что Вы хотите узнать о погоде Остров Котельный!

Поиск расширенной информации на нашем сайте:

Другие новости

Новости СМИ2

Главная страница сайта

Новости сайта

03.07.2017

Напоминаем, что на нашем специализированном сайте Метеоцентр.Азия вы можете получить высокодетализированные автоматические прогнозы погоды по пунктам России, СНГ и мира в авиационном формате (включающие направление и скорость ветра, видимость, явления погоды, количество и форму облачности, нижнюю и верхнюю границу облачности).

Рекомендуем: Самая детальная информация Установка рулевой колонки тут.

Погода Остров Котельный - сегодня

Время (UTC), дата Ветер
(°,м/с) 
Видим.   Явления Облачность Т
(°С)
Тd
(°С)
f(%) Тe
(°С)
Pmin
(гПа)
dP
(гПа)
Po
(мм)
O2
(г/м3)
Тmin Tmax R s Состояние
почвы
00 17.10.17 200 (Ю) 20000 м    9/6 300 м средняя, верхняя 
[Sc|Ac trans|Ci fib]
-10.4 -12.4 85 -10  1038.1  -0.2  777  327  -12.8      неравномерный
сухой снег
100% 
03 17.10.17 190 (Ю) 20000 м    10/10 300 м 
[Sc]
-8 -10.3 83 -8  1037.9  -0.2  777  324           
06 17.10.17 030 (СВ) 4000 м  слаб. ливневой снег  10/10 300 м кучево-дожд. 
[Cb cap]
-5.8 -8 84 -8  1037.1  -1  776  320           
09 17.10.17 350 (С) 20000 м  {ливн. осадки}  10/10 300 м 
[Sc]
-5.4 -9.6 72 -9  1036.3  -0.8  776  320           
12 17.10.17 030 (СВ) 4000 м  слаб. ливневой снег  10/10 300 м кучево-дожд. 
[Cb cap]
-5.4 -8.3 80 -10  1036.1  -0.2  776  320    -5.1  0.0     
15 17.10.17 030 (СВ) 20000 м  {ливн. осадки}  10/10 300 м 
[Sc]
-5.4 -7.2 87 -9  1035.2  -0.9  775  319           
18 17.10.17 050 (СВ) 7{10}  4000 м  слаб. ливневой снег  10/10 300 м кучево-дожд. 
[Cb cap]
-6.2 -8.5 84 -11  1034.8  -0.4  775  320           
21 17.10.17 080 (В) 4000 м  слаб. ливневой снег  9/9 300 м кучево-дожд. 
[Cb cap]
-7.8 -9.2 90 -11  1034.8  775  322           
00 18.10.17 090 (В) 4000 м  слаб. ливневой снег  9/9 300 м кучево-дожд. 
[Cb cap]
-8 -9 93 -11  1034.5  -0.3  774  322  -10.1    0.3  неравномерный
сухой снег
100% 
03 18.10.17 090 (В) 4000 м  слаб. ливневой снег  9/9 300 м кучево-дожд. 
[Cb cap]
-7 -8.3 90 -11  1034.1  -0.4  774  321           
06 18.10.17 090 (В) 20000 м  {ливн. осадки}  9/8 300 м средняя 
[Sc|Ac trans]
-8.6 -9.7 92 -11  1033.8  -0.3  774  323           
09 18.10.17 150 (ЮВ) 4000 м  слаб. ливневой снег  10/10 300 м кучево-дожд. 
[Cb cap]
-10.5 -11.1 95 -10  1033.9  0.1  774  325           
12 18.10.17 100 (В) 4000 м  слаб. ливневой снег  10/10 300 м кучево-дожд. 
[Cb cap]
-9.4 -10.1 95 -11  1033.8  -0.1  774  324    -7  0.2     
15 18.10.17 тихо ()   4000 м  слаб. ливневой снег  10/10 300 м кучево-дожд. 
[Cb cap]
-10.5 -11.1 95 -11  1033.5  -0.3  774  325           
18 18.10.17 тихо ()   4000 м  слаб. ливневой снег  10/10 300 м кучево-дожд. 
[Cb cap]
-10 -10.6 95 -10  1033.1  -0.4  773  325           
21 18.10.17 100 (В) 20000 м  в посл. час ливневой снег  10/10 300 м 
[Sc]
-10.3 -10.9 95 -12  1033  -0.1  773  325           
00 19.10.17 130 (ЮВ) 4000 м  слаб. ливневой снег  10/10 300 м кучево-дожд. 
[Cb cap]
-9.4 -10.6 91 -11  1033.3  0.3  773  324  -11.6    0.4  неравномерный
сухой снег
100% 
03 19.10.17 110 (В) 4000 м  слаб. ливневой снег  10/10 300 м кучево-дожд. 
[Cb cap]
-9.4 -10.6 91 -9  1033  -0.3  773  324           
06 19.10.17 120 (ЮВ) 4000 м  слаб. ливневой снег  10/10 300 м кучево-дожд. 
[Cb cap]
-9.7 -10.9 91 -11  1033.1  0.1  773  324           
09 19.10.17 140 (ЮВ) 20000 м  {ливн. осадки}  10/10 300 м 
[Sc]
-9.4 -10.6 91 -12  1033.4  0.3  774  324           
12 19.10.17 160 (Ю) 4000 м  слаб. ливневой снег  9/9 300 м кучево-дожд. 
[Cb cap]
-11.7 -12.3 95 -12  1033.5  0.1  774  327    -9.2  0.3     
15 19.10.17 130 (ЮВ) 4000 м  слаб. ливневой снег  10/10 300 м кучево-дожд. 
[Cb cap]
-10.3 -10.9 95 -10  1033.5  774  325           
18 19.10.17 тихо ()   4000 м  слаб. ливневой снег  10/10 300 м кучево-дожд. 
[Cb cap]
-10.6 -11.2 95 -11  1033.4  -0.1  774  325           
21 19.10.17 290 (З) 4000 м  слаб. ливневой снег  10/10 300 м кучево-дожд. 
[Cb cap]
-11.2 -11.8 95 -11  1033.8  0.4  774  326           
00 20.10.17 190 (Ю) 4000 м  слаб. ливневой снег  10/10 300 м кучево-дожд. 
[Cb cap]
-10.8 -11.4 95 -13  1033.8  774  326  -11.7    0.3  неравномерный
сухой снег
100% 
Время (UTC), дата Ветер
(°,м/с) 
Видим.   Явления Облачность Т
(°С)
Тd
(°С)
f(%) Тe
(°С)
Pmin
(гПа)
dP
(гПа)
Po
(мм)
O2
(г/м3)
Тmin Tmax R s Состояние
почвы

Для получения пояснительной информации подведите курсор к названию столбца.

ПОГОДА Остров Котельный - архив

Всё, что Вы хотите узнать о погоде Остров Котельный - удобно и подробно!

Выберите нужную дату (начиная с 1 января 2015* года) и нажмите кнопку "Найти".
Будут отображены архивные сводки погоды по пункту Остров Котельный, начиная с указанной даты.


Отображать данные в формате CSV (для использования в таблицах Excel)


Внимание! Наш архив погоды предназначен исключительно для личного некоммерческого использования в познавательных целях. Если Вам необходимы официальные справки о состоянии погоды (для производственных, юридических, коммерческих и т.п. целей), обращайтесь в органы Росгидромета.

*Примечание: данная дата относится к архиву по метеостанциям СССР (Россия, СНГ, Балтия).
Архив по метеостанциям Зарубежной Европы и Азии (кроме Китая) хранится 10 дней, по другим регионам земного шара (Китай, Африка, Америка, Австралия, Океания) - 1 день.

Остров Котельный - район местоположения метеостанции


Название, широта, долгота, высота метеостанции:
Остров Котельный 76°ш. 137.9°д. 8 м над ур. моря [Российская Федерация]

Дополнительная информация

В oтличие oт бoльшинства пoгoдных сайтoв мы публикуем пoдрoбную метеoинфoрмацию в детальнoм прoфессиoнальнoм фoрмате.

Характеристики температуры и влажнoсти вoздуха измеряются на высoте 2 м в тени вдали oт зданий и деревьев.
Скoрoсть ветра измеряется на высoте 10 м (на урoвне рoста челoвека скoрoсть ветра ниже в 1.5-2 раза). Если метеoстанция нахoдится в гoрoде или в лесу, тo скoрoсть ветра занижена на 2-4 м/с пo сравнению с oткрытым местoм. Скoрoсть ветра над акватoриями крупных рек и oзёр, а также на вершинах хoлмoв на 2-5 м/с выше, чем в oбычных услoвиях.
Атмoсфернoе давление в разных тoчках местнoсти мoжет значительнo oтличаться oт давления на метеoстанции, в зависимoсти oт услoвий рельефа (при пoдъёме на 10 м давление пoнижается примернo на 1 мм рт.ст.).